FW4718 Weather Reports


time (UTC)temp
C
wind
direction
speed
KPH
gust
KPH
rain 1hr
cm
rain 24hr
cm
rain mn
cm
humidity
%
barometer
mb
20260508065011 10 112 1.6 9.7 0.00 0.00 0.00 88 1016.4
20260508064535 10 107 1.6 9.7 0.00 0.00 0.00 89 1016.4
20260508064014 10 121 3.2 8.0 0.00 0.00 0.00 90 1016.3
20260508063513 10 94 3.2 6.4 0.00 0.00 0.00 91 1016.3
20260508063030 9 108 3.2 6.4 0.00 0.00 0.00 91 1016.3
20260508062512 9 103 1.6 9.7 0.00 0.00 0.00 91 1016.2
20260508062013 9 126 3.2 9.7 0.00 0.00 0.00 92 1016.3
20260508061529 8 111 3.2 6.4 0.00 0.00 0.00 92 1016.2
20260508061010 8 109 3.2 6.4 0.00 0.00 0.00 93 1016.2
20260508060515 8 103 3.2 6.4 0.00 0.00 0.00 93 1016.2
20260508060037 8 123 1.6 6.4 0.00 0.00 0.00 93 1016.1
20260508055511 8 153 3.2 6.4 0.00 0.00 0.00 93 1016.1
20260508055014 7 166 1.6 4.8 0.00 0.00 0.00 93 1016.1
20260508054534 7 0 0.0 3.2 0.00 0.00 0.00 93 1016.1
20260508054011 7 0 0.0 1.6 0.00 0.00 0.00 93 1016.1
20260508053510 7 0 0.0 0.0 0.00 0.00 0.00 93 1016.0
20260508053030 7 0 0.0 0.0 0.00 0.00 0.00 93 1016.0
20260508052518 7 0 0.0 0.0 0.00 0.00 0.00 93 1015.9
20260508052014 7 0 0.0 0.0 0.00 0.00 0.00 93 1016.0
20260508051529 7 0 0.0 0.0 0.00 0.00 0.00 93 1016.0
20260508051010 7 0 0.0 0.0 0.00 0.00 0.00 93 1016.1
20260508050512 7 0 0.0 0.0 0.00 0.00 0.00 93 1016.0
20260508050032 7 0 0.0 0.0 0.00 0.00 0.00 92 1015.9
20260508045511 7 0 0.0 0.0 0.00 0.00 0.00 92 1016.0
20260508045014 7 0 0.0 0.0 0.00 0.00 0.00 92 1016.0
20260508044530 7 0 0.0 0.0 0.00 0.00 0.00 92 1016.0
20260508044010 7 0 0.0 0.0 0.00 0.00 0.00 92 1016.0
20260508043511 7 0 0.0 0.0 0.00 0.00 0.00 92 1016.0
20260508043031 7 0 0.0 0.0 0.00 0.00 0.00 92 1015.9
20260508042513 7 0 0.0 0.0 0.00 0.00 0.00 92 1016.0
20260508042012 7 0 0.0 0.0 0.00 0.00 0.00 93 1016.0
20260508041528 7 0 0.0 0.0 0.00 0.00 0.00 93 1015.9
20260508041012 7 0 0.0 0.0 0.00 0.00 0.00 93 1015.9
20260508040514 7 0 0.0 0.0 0.00 0.00 0.00 93 1015.7
20260508040034 7 0 0.0 0.0 0.00 0.00 0.00 93 1015.7
20260508035512 7 0 0.0 0.0 0.00 0.00 0.00 93 1015.8
20260508035011 7 0 0.0 0.0 0.00 0.00 0.00 93 1015.7
20260508034536 7 0 0.0 0.0 0.00 0.00 0.00 93 1015.8
20260508034011 7 0 0.0 0.0 0.00 0.00 0.00 93 1015.8
20260508033511 7 0 0.0 0.0 0.00 0.00 0.00 92 1015.8
20260508033028 7 0 0.0 0.0 0.00 0.00 0.00 92 1015.7
20260508032511 7 0 0.0 0.0 0.00 0.00 0.00 92 1015.7
20260508032011 7 0 0.0 0.0 0.00 0.00 0.00 92 1015.8
20260508031530 7 0 0.0 0.0 0.00 0.00 0.00 92 1015.7
20260508031011 7 0 0.0 0.0 0.00 0.00 0.00 91 1015.7
20260508030509 7 0 0.0 0.0 0.00 0.00 0.00 91 1015.9
20260508030030 7 0 0.0 0.0 0.00 0.00 0.00 91 1015.9
20260508025514 7 0 0.0 0.0 0.00 0.00 0.00 91 1015.8
20260508025008 7 0 0.0 0.0 0.00 0.00 0.00 91 1015.8
20260508024529 7 0 0.0 0.0 0.00 0.00 0.00 90 1015.9
20260508024009 7 0 0.0 0.0 0.00 0.00 0.00 90 1015.8
20260508023510 7 0 0.0 0.0 0.00 0.00 0.00 90 1015.9
20260508023037 7 0 0.0 0.0 0.00 0.00 0.00 90 1015.9
20260508022511 7 0 0.0 0.0 0.00 0.00 0.00 90 1015.8
20260508022015 7 0 0.0 0.0 0.00 0.00 0.00 90 1015.8
20260508021530 7 0 0.0 0.0 0.00 0.00 0.00 90 1015.8
20260508021011 7 0 0.0 0.0 0.00 0.00 0.00 90 1015.8
20260508020511 7 0 0.0 0.0 0.00 0.00 0.00 90 1015.7
20260508020027 8 0 0.0 0.0 0.00 0.00 0.00 90 1015.7
20260508015512 8 0 0.0 0.0 0.00 0.00 0.00 90 1015.8
20260508015011 8 0 0.0 0.0 0.00 0.00 0.00 89 1015.8
20260508014530 8 0 0.0 0.0 0.00 0.00 0.00 89 1015.8
20260508014010 8 0 0.0 0.0 0.00 0.00 0.00 89 1015.7
20260508013513 8 0 0.0 0.0 0.00 0.00 0.00 89 1015.7
20260508013029 8 0 0.0 0.0 0.00 0.00 0.00 89 1015.6
20260508012512 8 0 0.0 0.0 0.00 0.00 0.00 89 1015.6
20260508012012 8 0 0.0 0.0 0.00 0.00 0.00 89 1015.5
20260508011536 8 0 0.0 0.0 0.00 0.00 0.00 89 1015.5
20260508011015 8 0 0.0 0.0 0.00 0.00 0.00 89 1015.5
20260508010512 8 0 0.0 0.0 0.00 0.00 0.00 88 1015.5
20260508010030 8 0 0.0 0.0 0.00 0.00 0.00 88 1015.6
20260508005511 9 0 0.0 0.0 0.00 0.00 0.00 88 1015.6
20260508005012 9 0 0.0 0.0 0.00 0.00 0.00 88 1015.6
20260508004532 9 0 0.0 0.0 0.00 0.00 0.00 88 1015.7
20260508004013 9 0 0.0 0.0 0.00 0.00 0.00 88 1015.8
20260508003517 9 0 0.0 0.0 0.00 0.00 0.00 88 1015.7
20260508003028 9 0 0.0 0.0 0.00 0.00 0.00 87 1015.8
20260508002508 9 0 0.0 0.0 0.00 0.00 0.00 87 1015.7
20260508002013 9 0 0.0 0.0 0.00 0.00 0.00 88 1015.8
20260508001543 9 0 0.0 0.0 0.00 0.00 0.00 87 1015.7
20260508001012 9 0 0.0 0.0 0.00 0.00 0.00 88 1015.8
20260508000514 9 0 0.0 0.0 0.00 0.00 0.00 88 1015.8
20260508000031 9 0 0.0 0.0 0.00 0.00 0.00 88 1015.9
20260507235510 9 0 0.0 0.0 0.00 0.00 0.00 88 1015.8
20260507235015 9 0 0.0 0.0 0.00 0.00 0.00 88 1015.9
20260507234527 9 0 0.0 0.0 0.00 0.00 0.00 88 1015.9
20260507234011 9 0 0.0 0.0 0.00 0.00 0.00 88 1015.9
20260507233513 9 0 0.0 0.0 0.00 0.00 0.00 88 1015.8
20260507233034 9 0 0.0 0.0 0.00 0.00 0.00 88 1015.8
20260507232508 9 0 0.0 0.0 0.00 0.00 0.00 88 1015.8
20260507232011 9 0 0.0 0.0 0.00 0.00 0.00 87 1015.8
20260507231527 10 0 0.0 0.0 0.00 0.00 0.00 87 1015.7
20260507231011 10 0 0.0 0.0 0.00 0.00 0.00 87 1015.8
20260507230513 10 0 0.0 0.0 0.00 0.00 0.00 87 1015.8
20260507230032 10 0 0.0 0.0 0.00 0.00 0.00 87 1015.7
20260507225512 10 0 0.0 0.0 0.00 0.00 0.00 87 1015.7
20260507225012 10 0 0.0 0.0 0.00 0.00 0.00 87 1015.7
20260507224533 10 0 0.0 0.0 0.00 0.00 0.00 86 1015.7
20260507224012 10 0 0.0 0.0 0.00 0.00 0.00 86 1015.8
20260507223515 10 0 0.0 0.0 0.00 0.00 0.00 86 1015.8
20260507223029 10 0 0.0 0.0 0.00 0.00 0.00 86 1015.9
20260507222512 10 0 0.0 0.0 0.00 0.00 0.00 86 1015.8
20260507222011 10 0 0.0 0.0 0.00 0.00 0.00 86 1015.8
20260507221528 10 0 0.0 0.0 0.00 0.00 0.00 86 1015.9
20260507221010 10 0 0.0 0.0 0.00 0.00 0.00 85 1015.8
20260507220511 10 0 0.0 0.0 0.00 0.00 0.00 85 1015.7
20260507220028 10 0 0.0 0.0 0.00 0.00 0.00 84 1015.8
20260507215515 10 0 0.0 0.0 0.00 0.00 0.00 83 1015.7
20260507215020 10 0 0.0 0.0 0.00 0.00 0.00 83 1015.8
20260507214530 10 0 0.0 0.0 0.00 0.00 0.00 83 1015.8
20260507214014 10 0 0.0 0.0 0.00 0.00 0.00 82 1015.7
20260507213510 10 0 0.0 0.0 0.00 0.00 0.00 82 1015.8
20260507213035 10 0 0.0 0.0 0.00 0.00 0.00 82 1015.7
20260507212510 10 0 0.0 0.0 0.00 0.00 0.00 82 1015.8
20260507212017 10 0 0.0 0.0 0.00 0.00 0.00 82 1015.7
20260507211542 10 0 0.0 0.0 0.00 0.00 0.00 82 1015.7
20260507211015 11 0 0.0 0.0 0.00 0.00 0.00 81 1015.7
20260507210510 11 0 0.0 0.0 0.00 0.00 0.00 81 1015.7
20260507210033 11 0 0.0 0.0 0.00 0.00 0.00 81 1015.7
20260507205510 11 0 0.0 0.0 0.00 0.00 0.00 81 1015.7
20260507205011 11 0 0.0 0.0 0.00 0.00 0.00 80 1015.6
20260507204530 11 0 0.0 0.0 0.00 0.00 0.00 80 1015.7
20260507204011 11 0 0.0 0.0 0.00 0.00 0.00 80 1015.6
20260507203512 11 0 0.0 0.0 0.00 0.00 0.00 80 1015.6
20260507203028 11 0 0.0 0.0 0.00 0.00 0.00 79 1015.5
20260507202511 11 0 0.0 0.0 0.00 0.00 0.00 79 1015.5
20260507202012 11 0 0.0 3.2 0.00 0.00 0.00 79 1015.4
20260507201536 11 0 0.0 3.2 0.00 0.00 0.00 78 1015.4
20260507201008 11 0 0.0 3.2 0.00 0.00 0.00 77 1015.3
20260507200509 11 222 0.0 4.8 0.00 0.00 0.00 77 1015.3
20260507200037 11 0 0.0 4.8 0.00 0.00 0.00 77 1015.2
20260507195509 11 222 1.6 4.8 0.00 0.00 0.00 76 1015.1
20260507195011 11 234 1.6 6.4 0.00 0.00 0.00 76 1015.1
20260507194528 11 185 1.6 6.4 0.00 0.00 0.00 76 1015.1
20260507194011 11 184 3.2 6.4 0.00 0.00 0.00 76 1015.0
20260507193511 11 187 1.6 6.4 0.00 0.00 0.00 76 1015.0
20260507193029 11 249 3.2 6.4 0.00 0.00 0.00 76 1015.1
20260507192514 11 228 1.6 4.8 0.00 0.00 0.00 76 1015.1
20260507192013 12 229 0.0 4.8 0.00 0.00 0.00 76 1015.0
20260507191528 12 0 0.0 0.0 0.00 0.00 0.00 75 1015.1
20260507191009 12 0 0.0 0.0 0.00 0.00 0.00 75 1015.0
20260507190512 12 0 0.0 0.0 0.00 0.00 0.00 75 1015.0
20260507190029 12 0 0.0 6.4 0.00 0.00 0.00 74 1014.9
20260507185511 12 0 0.0 8.0 0.00 0.00 0.00 73 1014.9
20260507185015 12 223 3.2 9.7 0.00 0.00 0.00 73 1014.9
20260507184533 12 219 3.2 11.3 0.00 0.00 0.00 72 1014.9
20260507184012 12 209 3.2 11.3 0.00 0.00 0.00 72 1014.9
20260507183512 12 233 3.2 9.7 0.00 0.00 0.00 71 1014.9
20260507183033 12 217 3.2 9.7 0.00 0.00 0.00 70 1014.8
20260507182512 12 237 3.2 9.7 0.00 0.00 0.00 70 1014.8
20260507182013 12 246 3.2 9.7 0.00 0.00 0.00 69 1014.9
20260507181529 12 197 3.2 8.0 0.00 0.00 0.00 69 1014.7
20260507181011 12 221 3.2 9.7 0.00 0.00 0.00 68 1014.7
20260507180514 13 211 3.2 9.7 0.00 0.00 0.00 68 1014.6
20260507180040 13 236 3.2 11.3 0.00 0.00 0.00 67 1014.7
20260507175511 13 360 4.8 11.3 0.00 0.00 0.00 66 1014.6
20260507175011 13 245 3.2 8.0 0.00 0.00 0.00 66 1014.6
20260507174533 13 242 3.2 8.0 0.00 0.00 0.00 66 1014.6
20260507174011 13 236 3.2 6.4 0.00 0.00 0.00 66 1014.6
20260507173514 13 232 3.2 8.0 0.00 0.00 0.00 64 1014.5
20260507173031 13 237 1.6 11.3 0.00 0.00 0.00 64 1014.6
20260507172511 13 167 4.8 11.3 0.00 0.00 0.00 63 1014.6
20260507172013 13 240 4.8 11.3 0.00 0.00 0.00 62 1014.5
20260507171528 14 225 6.4 11.3 0.00 0.00 0.00 61 1014.6
20260507171014 14 209 4.8 11.3 0.00 0.00 0.00 61 1014.5
20260507170509 14 258 4.8 11.3 0.00 0.00 0.00 60 1014.6
20260507170044 14 187 3.2 11.3 0.00 0.00 0.00 59 1014.5
20260507165508 14 215 4.8 11.3 0.00 0.00 0.00 59 1014.7
20260507165011 14 191 4.8 11.3 0.00 0.00 0.00 59 1014.6
20260507164530 14 240 4.8 11.3 0.00 0.00 0.00 59 1014.6
20260507164012 14 216 4.8 11.3 0.00 0.00 0.00 59 1014.6
20260507163512 14 195 4.8 8.0 0.00 0.00 0.00 58 1014.6
20260507163028 14 206 3.2 12.9 0.00 0.00 0.00 59 1014.6
20260507162511 14 195 3.2 12.9 0.00 0.00 0.00 57 1014.6
20260507162013 15 244 6.4 11.3 0.00 0.00 0.00 57 1014.6
20260507161529 15 196 4.8 11.3 0.00 0.00 0.00 57 1014.6
20260507161011 15 225 4.8 14.5 0.00 0.00 0.00 57 1014.6
20260507160512 15 175 4.8 14.5 0.00 0.00 0.00 57 1014.7
20260507160032 15 223 4.8 11.3 0.00 0.00 0.00 55 1014.7
20260507155511 15 200 6.4 12.9 0.00 0.00 0.00 55 1014.7
20260507155009 15 0 3.2 12.9 0.00 0.00 0.00 54 1014.8
20260507154530 15 244 3.2 9.7 0.00 0.00 0.00 54 1014.7
20260507154012 15 113 3.2 9.7 0.00 0.00 0.00 55 1014.6
20260507153512 16 223 1.6 14.5 0.00 0.00 0.00 54 1014.7
20260507153027 16 130 3.2 14.5 0.00 0.00 0.00 54 1014.9
20260507152512 16 219 4.8 11.3 0.00 0.00 0.00 52 1014.9
20260507152011 16 113 3.2 11.3 0.00 0.00 0.00 53 1014.9
20260507151529 16 194 4.8 11.3 0.00 0.00 0.00 53 1015.0
20260507151013 16 0 1.6 9.7 0.00 0.00 0.00 54 1014.9
20260507150513 16 120 0.0 9.7 0.00 0.00 0.00 55 1014.9
20260507150030 16 119 4.8 11.3 0.00 0.00 0.00 54 1014.9
20260507145511 16 173 1.6 12.9 0.00 0.00 0.00 51 1015.0
20260507145008 16 113 4.8 12.9 0.00 0.00 0.00 56 1014.9
20260507144530 15 110 3.2 6.4 0.00 0.00 0.00 59 1014.9
20260507144010 15 112 1.6 6.4 0.00 0.00 0.00 55 1014.9
20260507143510 16 0 0.0 9.7 0.00 0.00 0.00 52 1015.0
20260507143030 16 112 1.6 9.7 0.00 0.00 0.00 54 1015.1
20260507142511 16 115 3.2 9.7 0.00 0.00 0.00 55 1015.0
20260507142012 16 167 1.6 8.0 0.00 0.00 0.00 54 1015.2
20260507141528 16 142 1.6 8.0 0.00 0.00 0.00 53 1015.2
20260507141010 16 128 1.6 9.7 0.00 0.00 0.00 54 1015.2
20260507140511 16 114 1.6 9.7 0.00 0.00 0.00 57 1015.2
20260507140035 16 78 3.2 8.0 0.00 0.00 0.00 55 1015.2
20260507135511 16 175 0.0 4.8 0.00 0.00 0.00 53 1015.2
20260507135011 16 0 0.0 6.4 0.00 0.00 0.00 53 1015.3
20260507134530 17 202 1.6 6.4 0.00 0.00 0.00 52 1015.5
20260507134007 17 0 0.0 8.0 0.00 0.00 0.00 56 1015.4
20260507133509 17 0 0.0 9.7 0.00 0.00 0.00 50 1015.3
20260507133029 17 127 1.6 9.7 0.00 0.00 0.00 56 1015.4
20260507132510 17 188 3.2 11.3 0.00 0.00 0.00 53 1015.4
20260507132010 16 111 3.2 11.3 0.00 0.00 0.00 56 1015.5
20260507131532 16 134 1.6 11.3 0.00 0.00 0.00 55 1015.5
20260507131011 16 149 0.0 6.4 0.00 0.00 0.00 56 1015.5
20260507130514 16 0 0.0 6.4 0.00 0.00 0.00 54 1015.5
20260507130033 16 109 3.2 8.0 0.00 0.00 0.00 55 1015.7
20260507125512 16 120 1.6 12.9 0.00 0.00 0.00 54 1015.7
20260507125011 17 193 4.8 16.1 0.00 0.00 0.00 57 1015.7
20260507124529 17 190 4.8 16.1 0.00 0.00 0.00 57 1015.7
20260507124008 17 81 4.8 14.5 0.00 0.00 0.00 57 1015.6
20260507123509 17 144 4.8 12.9 0.00 0.00 0.00 57 1015.7
20260507123032 17 111 4.8 12.9 0.00 0.00 0.00 54 1015.8
20260507122509 17 0 1.6 14.5 0.00 0.00 0.00 54 1015.7
20260507122013 17 154 3.2 14.5 0.00 0.00 0.00 57 1015.8
20260507121533 16 126 6.4 14.5 0.00 0.00 0.00 58 1015.9
20260507121011 16 0 1.6 11.3 0.00 0.00 0.00 58 1015.8
20260507120510 16 214 3.2 17.7 0.00 0.00 0.00 62 1015.9
20260507120029 16 98 3.2 17.7 0.00 0.00 0.00 63 1015.9
20260507115514 16 156 1.6 8.0 0.00 0.00 0.00 59 1015.8
20260507115012 16 147 3.2 14.5 0.00 0.00 0.00 67 1015.8
20260507114528 16 113 3.2 14.5 0.00 0.00 0.00 67 1015.6
20260507114011 16 73 3.2 14.5 0.00 0.00 0.00 69 1015.7
20260507113511 16 123 3.2 12.9 0.00 0.00 0.00 72 1015.8
20260507113029 15 69 4.8 12.9 0.00 0.00 0.00 73 1015.9
20260507112513 15 113 4.8 9.7 0.00 0.00 0.00 75 1016.1
20260507112013 14 0 1.6 6.4 0.00 0.00 0.00 71 1016.1
20260507111530 13 17 1.6 6.4 0.00 0.00 0.00 74 1016.1
20260507111009 13 0 3.2 9.7 0.00 0.00 0.00 72 1016.2
20260507110510 13 192 1.6 9.7 0.00 0.00 0.00 74 1016.2
20260507110030 13 242 1.6 8.0 0.00 0.00 0.00 73 1016.2
20260507105510 13 0 1.6 8.0 0.00 0.00 0.00 74 1016.2
20260507105012 13 222 4.8 8.0 0.00 0.00 0.00 73 1016.2
20260507104527 12 119 3.2 4.8 0.00 0.00 0.00 74 1016.2
20260507104014 12 0 0.0 6.4 0.00 0.00 0.00 75 1016.4
20260507103512 12 0 0.0 6.4 0.00 0.00 0.00 76 1016.4
20260507103036 12 164 1.6 6.4 0.00 0.00 0.00 77 1016.4
20260507102513 12 182 1.6 6.4 0.00 0.00 0.00 77 1016.5
20260507102013 12 145 3.2 6.4 0.00 0.00 0.00 77 1016.5
20260507101530 11 204 3.2 6.4 0.00 0.00 0.00 77 1016.5
20260507101012 11 121 1.6 6.4 0.00 0.00 0.00 78 1016.5
20260507100512 11 0 1.6 9.7 0.00 0.00 0.00 78 1016.5
20260507100031 11 118 3.2 9.7 0.00 0.00 0.00 80 1016.5
20260507095513 11 129 1.6 6.4 0.00 0.00 0.00 80 1016.5
20260507095013 10 132 0.0 9.7 0.00 0.00 0.00 83 1016.6
20260507094532 10 126 3.2 9.7 0.00 0.00 0.00 84 1016.5
20260507094012 10 159 1.6 6.4 0.00 0.00 0.00 85 1016.5
20260507093515 10 0 0.0 6.4 0.00 0.00 0.00 86 1016.5
20260507093028 10 115 1.6 6.4 0.00 0.00 0.00 86 1016.5
20260507092513 9 0 0.0 6.4 0.00 0.00 0.00 87 1016.5
20260507092015 9 130 1.6 6.4 0.00 0.00 0.00 87 1016.5
20260507091538 9 105 1.6 6.4 0.00 0.00 0.00 89 1016.5
20260507091012 9 115 3.2 6.4 0.00 0.00 0.00 90 1016.5
20260507090512 8 113 0.0 6.4 0.00 0.00 0.00 89 1016.5
20260507090034 8 0 1.6 9.7 0.00 0.00 0.00 90 1016.5
20260507085513 8 106 3.2 9.7 0.00 0.00 0.00 90 1016.6
20260507085017 8 85 3.2 8.0 0.00 0.00 0.00 90 1016.6
20260507084540 8 101 3.2 9.7 0.00 0.00 0.00 91 1016.7
20260507084014 8 103 3.2 11.3 0.00 0.00 0.00 91 1016.5
20260507083517 8 119 3.2 11.3 0.00 0.00 0.00 91 1016.6
20260507083030 8 103 3.2 11.3 0.00 0.00 0.00 90 1016.5
20260507082512 8 134 3.2 11.3 0.00 0.00 0.00 91 1016.6
20260507082012 8 108 4.8 11.3 0.00 0.00 0.00 92 1016.6
20260507081621 8 107 3.2 9.7 0.00 0.00 0.00 93 1016.6
20260507081013 7 136 1.6 9.7 0.00 0.00 0.00 93 1016.5
20260507080510 7 90 1.6 9.7 0.00 0.00 0.00 94 1016.5
20260507080030 7 126 3.2 6.4 0.00 0.00 0.00 94 1016.4
20260507075510 7 114 3.2 6.4 0.00 0.00 0.00 94 1016.5
20260507075011 7 103 1.6 6.4 0.00 0.00 0.00 94 1016.4
20260507074528 7 114 0.0 6.4 0.00 0.00 0.00 95 1016.5
20260507074010 7 121 1.6 9.7 0.00 0.00 0.00 95 1016.5
20260507073513 7 90 1.6 9.7 0.00 0.00 0.00 95 1016.5
20260507073030 7 114 0.0 9.7 0.00 0.00 0.00 96 1016.5
20260507072511 6 0 1.6 11.3 0.00 0.00 0.00 96 1016.4
20260507072012 6 0 3.2 11.3 0.00 0.00 0.00 96 1016.3
20260507071530 6 109 3.2 9.7 0.00 0.00 0.00 96 1016.4
20260507071010 6 117 4.8 9.7 0.00 0.00 0.00 96 1016.4
20260507070512 6 108 3.2 9.7 0.00 0.00 0.00 96 1016.3
20260507070039 6 90 3.2 9.7 0.00 0.00 0.00 97 1016.3
20260507065510 6 97 4.8 9.7 0.00 0.00 0.00 97 1016.4